TimeCST,TemperatureF,Dew PointF,Humidity,Sea Level PressureIn,VisibilityMPH,Wind Direction,Wind SpeedMPH,Gust SpeedMPH,PrecipitationIn,Events,Conditions,WindDirDegrees,DateUTC
12:52 AM,32.0,23.0,69,30.34,10.0,NNW,10.4,-,N/A,,Clear,340,2013-01-17 06:52:00
1:52 AM,30.9,23.0,72,30.36,10.0,NNW,8.1,-,N/A,,Clear,340,2013-01-17 07:52:00
2:52 AM,27.0,21.9,81,30.40,10.0,WNW,9.2,-,N/A,,Clear,300,2013-01-17 08:52:00
3:52 AM,27.0,21.9,81,30.41,10.0,NW,9.2,-,N/A,,Clear,310,2013-01-17 09:52:00
4:52 AM,26.1,21.0,81,30.43,10.0,NW,9.2,-,N/A,,Clear,310,2013-01-17 10:52:00
5:52 AM,25.0,19.9,81,30.46,10.0,NW,6.9,-,N/A,,Clear,310,2013-01-17 11:52:00
6:52 AM,24.1,19.9,84,30.48,10.0,NW,6.9,-,N/A,,Clear,310,2013-01-17 12:52:00
7:52 AM,25.0,19.9,81,30.51,10.0,West,6.9,-,N/A,,Clear,270,2013-01-17 13:52:00
8:52 AM,28.9,23.0,78,30.53,10.0,West,5.8,-,N/A,,Clear,270,2013-01-17 14:52:00
9:52 AM,39.0,25.0,57,30.54,10.0,WNW,5.8,-,N/A,,Clear,300,2013-01-17 15:52:00
10:52 AM,43.0,25.0,49,30.54,10.0,West,9.2,-,N/A,,Clear,280,2013-01-17 16:52:00
11:52 AM,48.0,25.0,41,30.51,10.0,West,9.2,-,N/A,,Clear,270,2013-01-17 17:52:00
12:52 PM,51.1,24.1,35,30.47,10.0,West,10.4,-,N/A,,Clear,280,2013-01-17 18:52:00
1:52 PM,53.1,21.9,30,30.43,10.0,West,11.5,-,N/A,,Clear,260,2013-01-17 19:52:00
2:52 PM,54.0,21.0,28,30.42,10.0,West,11.5,-,N/A,,Clear,260,2013-01-17 20:52:00
3:52 PM,54.0,19.0,25,30.41,10.0,West,8.1,-,N/A,,Clear,270,2013-01-17 21:52:00
4:52 PM,52.0,19.9,28,30.43,10.0,WSW,8.1,-,N/A,,Clear,250,2013-01-17 22:52:00
5:52 PM,46.0,21.0,37,30.44,10.0,SW,4.6,-,N/A,,Clear,230,2013-01-17 23:52:00
6:52 PM,37.9,21.9,53,30.46,10.0,SSW,5.8,-,N/A,,Clear,210,2013-01-18 00:52:00
7:52 PM,37.0,21.9,54,30.46,10.0,SSW,6.9,-,N/A,,Clear,210,2013-01-18 01:52:00
8:52 PM,36.0,23.0,59,30.44,10.0,SSW,6.9,-,N/A,,Clear,210,2013-01-18 02:52:00
9:52 PM,35.1,24.1,64,30.42,10.0,SSW,9.2,-,N/A,,Clear,200,2013-01-18 03:52:00
10:52 PM,35.1,24.1,64,30.39,10.0,SSW,8.1,-,N/A,,Clear,200,2013-01-18 04:52:00
11:52 PM,35.1,25.0,67,30.36,10.0,SSW,10.4,-,N/A,,Clear,210,2013-01-18 05:52:00